Theta_e
294 296 297 296 296 298 297 296 294 295 296 299 307 308 310 310 309 309 310 310 311 311 309 309 311 313 315 315 312 315 314 319 318 318 321 323 323 324 323 323 324 325 327 327
291 296 296 294 297 299 300 298 297 298 297 303 311 312 310 310 310 309 310 311 312 313 310 309 312 313 315 314 312 315 314 318 320 319 321 322 322 322 324 323 319 322 324 324
288 295 294 290 295 298 300 301 299 295 298 302 303 309 310 309 310 310 311 312 312 313 311 311 311 314 314 313 313 315 314 318 319 321 321 320 321 321 320 317 316 315 317 319
287 291 284 295 301 302 301 302 302 299 301 304 306 308 312 313 311 311 312 313 313 314 312 311 311 313 314 312 314 316 315 317 317 320 319 318 317 317 317 314 314 311 312 312
286 288 292 295 300 300 298 297 302 302 302 303 305 307 307 313 314 313 313 314 314 316 313 312 312 313 315 310 313 316 315 316 316 320 319 317 315 316 315 313 311 311 310 309
289 284 284 294 302 305 303 295 303 303 302 302 303 301 304 313 315 314 314 315 315 315 313 312 313 314 313 309 310 314 315 316 315 318 318 317 314 315 315 313 312 311 309 308
288 287 291 300 304 306 294 296 303 304 304 303 302 305 307 314 314 315 315 314 315 315 312 313 313 315 312 310 308 312 315 316 315 315 316 317 315 316 316 315 313 310 309 307
290 287 287 303 304 298 302 306 305 305 304 304 305 306 307 312 315 315 314 314 316 315 313 313 314 315 312 310 310 311 313 314 314 314 317 319 317 316 317 315 313 311 309 306
293 293 298 302 300 303 307 307 309 306 306 308 305 307 310 310 313 316 315 315 317 315 312 313 315 315 313 312 311 311 311 311 311 314 316 319 318 316 315 315 313 313 312 309
292 298 296 300 300 302 303 303 312 314 310 308 308 308 309 310 313 316 317 316 317 315 312 312 314 315 315 315 314 312 310 309 309 314 314 319 320 319 318 315 314 313 313 311
294 296 297 298 300 301 302 303 311 314 314 310 309 308 310 311 314 317 317 318 318 315 314 314 315 315 315 317 316 313 310 310 310 313 316 318 320 320 319 318 317 315 315 314
289 295 294 296 300 302 301 301 304 312 314 315 314 309 310 314 316 318 318 318 317 317 315 315 315 315 316 319 317 314 311 312 311 311 316 318 317 313 297 306 302 303 302 309
296 299 298 299 301 303 302 302 304 311 312 313 316 316 310 315 315 317 319 319 319 318 317 316 316 316 318 319 318 315 314 313 311 311 315 316 316 316 312 303 297 299 299 300
303 301 297 299 298 301 303 304 306 311 311 312 316 318 315 314 314 318 319 320 321 320 318 318 317 317 319 320 319 316 315 306 312 312 314 315 316 316 316 313 310 307 296 297
301 302 301 303 301 301 304 304 304 306 309 308 316 317 318 316 314 317 321 322 322 322 321 320 318 318 320 320 319 317 316 315 314 313 315 313 316 316 315 314 313 307 300 295
298 301 302 301 300 302 302 304 305 306 308 307 312 317 319 319 321 317 318 323 321 320 322 322 320 321 321 320 319 318 317 308 311 314 313 314 314 314 314 313 311 310 306 306
296 296 298 298 299 301 302 305 306 308 310 307 310 314 317 319 320 319 318 319 322 323 324 324 323 324 323 321 319 319 319 312 305 315 313 314 314 314 314 313 312 310 310 307
300 299 300 301 301 301 302 306 307 307 309 310 311 313 314 317 318 319 319 318 322 322 322 322 323 325 326 323 320 320 319 316 314 315 316 314 313 314 314 313 312 312 311 307
299 302 301 302 303 303 303 305 308 306 306 311 311 311 311 315 317 317 319 317 323 321 320 321 307 317 324 321 317 321 320 318 316 316 315 307 310 314 313 313 312 311 311 309
299 301 305 307 305 302 304 305 307 305 305 307 310 311 310 311 313 313 314 316 321 321 323 320 322 320 316 312 306 322 320 319 317 317 316 313 313 314 314 305 312 311 309 310
299 300 301 304 305 304 304 303 305 305 307 307 308 309 310 310 311 313 315 317 321 317 320 313 322 322 322 312 314 317 319 319 317 316 315 314 314 314 314 313 312 312 309 308
300 299 301 303 304 305 308 308 304 305 307 309 309 308 309 310 313 316 314 315 310 294 315 314 310 298 313 303 320 315 317 319 317 316 315 315 315 314 316 316 314 310 307 305
300 301 301 301 302 304 306 307 309 313 314 314 312 311 316 316 317 317 313 313 310 301 310 306 291 288 291 316 317 316 317 317 316 317 317 316 316 315 316 315 312 307 304 304
302 303 302 303 304 305 304 305 307 309 312 316 317 314 316 314 314 314 311 301 295 305 311 307 300 292 294 314 315 315 315 314 313 312 311 301 314 314 314 309 307 306 304 302
303 303 305 304 305 305 305 306 307 309 312 313 316 317 316 315 314 315 314 311 298 308 313 293 293 295 316 318 317 316 314 314 313 312 311 310 308 308 309 307 307 306 301 300
302 302 304 305 305 306 307 307 307 307 308 311 311 312 315 315 314 313 316 307 313 302 314 313 314 316 317 318 317 315 314 312 312 309 307 305 303 302 301 300 299 299 298 297
303 299 303 304 306 306 305 305 306 307 307 311 310 311 312 313 312 311 303 312 312 312 311 311 311 308 314 316 315 314 314 312 305 308 304 303 302 301 300 299 298 298 298 298
Wind_Speed
28 19 4 5 19 21 12 13 14 8 11 10 15 15 19 17 13 14 15 15 15 14 12 10 9 8 7 7 8 7 7 7 6 5 6 5 5 4 5 4 4 5 7 6
23 30 25 18 10 22 18 8 9 13 8 10 19 15 12 16 18 18 18 18 17 16 15 13 13 12 10 7 9 8 8 7 6 6 6 6 5 5 5 5 5 5 6 7
21 15 19 21 21 12 18 16 14 12 8 9 8 16 17 16 19 20 19 19 18 19 17 15 13 14 11 9 10 10 9 7 7 6 6 6 6 5 6 6 5 5 5 6
7 9 13 10 11 13 21 19 13 6 9 13 15 16 18 20 22 18 18 19 18 16 15 15 13 13 10 11 12 12 9 8 7 6 7 6 7 6 4 4 5 5 6 6
4 16 5 9 6 9 11 10 10 17 11 12 8 8 5 18 20 23 21 19 18 17 18 15 15 13 14 12 12 13 11 10 7 7 7 7 7 7 6 6 4 3 4 7
5 7 10 7 5 10 7 12 11 11 13 11 9 9 6 19 20 18 17 17 16 16 14 15 15 14 15 14 13 14 13 12 9 9 7 7 7 7 5 5 5 5 5 5
5 5 5 11 7 5 13 8 6 13 13 11 11 9 10 17 18 18 17 17 14 16 18 19 15 16 15 15 15 14 14 12 10 9 9 8 7 4 6 5 6 5 6 4
4 5 4 25 6 7 6 16 13 12 11 11 10 9 8 18 19 17 17 13 16 16 15 15 16 16 16 17 15 12 14 13 12 10 9 7 9 6 6 7 7 6 5 3
5 1 6 7 11 11 11 5 12 11 9 16 11 10 11 10 16 16 18 18 17 17 15 14 17 17 17 15 14 13 13 14 12 11 10 10 10 7 5 6 6 5 5 4
7 3 15 2 13 14 19 17 17 15 12 13 14 11 10 9 13 15 17 17 16 15 16 16 16 17 17 15 16 15 12 12 11 12 9 10 9 9 8 6 5 5 5 5
6 10 17 11 19 19 22 21 19 20 17 7 13 11 13 9 13 15 16 15 17 17 16 18 17 15 13 16 16 14 11 11 12 11 13 10 10 10 10 9 10 7 7 8
3 12 7 13 17 17 20 20 20 18 22 19 11 9 10 12 13 15 16 17 15 16 16 16 17 16 14 17 17 15 12 10 10 10 10 10 9 4 7 5 12 11 13 9
4 10 14 15 12 12 15 19 19 13 15 17 13 4 4 11 12 17 18 19 18 18 17 16 17 16 16 17 16 16 14 12 10 10 10 10 9 9 8 2 4 9 11 14
6 6 12 8 9 13 12 17 15 10 13 15 13 11 7 6 8 16 18 19 18 17 16 16 16 17 17 17 16 15 13 16 12 11 11 11 11 10 9 9 8 4 3 5
13 11 14 13 11 11 8 15 17 14 14 19 13 13 15 15 7 8 16 16 16 16 16 16 16 16 16 17 16 15 12 11 12 11 11 11 10 9 9 9 8 5 3 2
5 11 10 9 10 10 7 11 13 15 9 14 17 15 13 14 9 11 9 16 16 14 15 16 16 15 16 17 16 12 12 15 13 11 10 11 10 10 9 9 8 8 7 8
15 7 10 5 8 9 7 5 10 9 8 9 14 16 16 17 13 14 15 16 13 15 15 16 17 14 16 18 17 12 10 8 12 10 11 12 11 11 10 10 9 9 10 9
15 12 8 6 5 5 10 2 9 9 7 7 10 15 16 14 15 15 20 28 6 9 8 8 8 10 15 16 16 11 11 11 11 12 11 11 11 10 10 10 10 10 9 8
14 13 8 12 9 8 10 7 4 6 7 5 6 12 14 10 9 11 16 24 5 11 5 5 11 11 13 15 15 11 10 11 12 10 10 10 8 10 10 10 10 10 9 7
14 12 11 10 12 9 6 5 4 7 5 3 2 9 10 14 16 17 18 25 8 5 10 8 8 7 7 8 11 9 10 12 12 11 9 9 10 11 10 11 11 10 9 9
13 12 12 10 9 9 10 7 8 5 4 2 2 1 7 8 15 22 19 12 9 5 6 11 7 5 5 6 7 6 8 8 9 10 10 10 10 9 10 9 9 10 9 9
12 10 9 8 8 7 3 5 5 4 4 4 3 2 7 3 10 8 11 11 5 4 7 6 6 7 4 6 5 5 5 7 7 6 7 8 9 9 11 11 10 8 7 7
11 11 11 10 10 8 5 5 2 6 5 4 1 5 4 5 6 6 10 6 1 6 7 6 6 6 5 4 3 5 6 6 6 6 8 8 9 8 9 9 7 6 6 6
11 5 11 10 9 8 10 6 7 7 7 5 7 7 8 5 4 4 2 7 8 8 8 6 8 9 4 2 5 5 5 5 5 3 1 2 3 5 6 6 5 6 7 8
13 13 8 5 5 7 8 9 8 8 8 7 7 5 8 6 6 7 5 6 7 4 4 3 6 9 8 8 7 7 6 5 5 5 5 5 5 6 5 5 5 5 7 7
13 10 8 6 4 4 3 0 3 3 6 6 2 3 4 4 4 4 5 5 3 3 3 2 4 6 6 8 8 9 7 6 6 6 6 6 7 6 6 7 7 7 7 7
8 11 11 10 8 6 6 7 4 4 2 6 4 1 5 4 3 5 4 4 1 2 2 4 6 6 4 8 8 7 7 6 6 5 5 5 5 6 7 7 7 7 7 8
Wind_Direction
222 243 252 201 212 197 179 184 178 195 181 195 183 181 182 172 157 160 166 169 174 171 172 169 170 174 177 165 149 155 138 142 158 162 135 133 135 126 104 80 79 103 103 91
219 227 237 248 253 205 201 179 140 172 208 184 188 191 153 170 165 174 177 179 178 178 172 173 175 178 180 163 154 152 146 155 163 152 144 149 141 137 111 86 74 93 93 93
223 212 231 239 235 219 193 184 148 177 198 154 147 178 180 172 178 181 180 182 181 181 180 177 175 176 178 161 151 154 152 155 160 153 152 159 145 137 116 99 101 100 106 114
247 192 229 236 200 204 204 185 179 155 170 171 180 186 187 181 178 187 183 183 185 181 181 178 170 172 163 145 158 157 158 160 157 149 152 144 132 152 129 113 116 105 106 108
231 198 248 226 204 179 172 220 180 179 194 181 181 107 184 190 186 184 188 186 184 181 179 172 169 167 160 155 156 160 166 167 163 153 155 143 130 140 130 122 115 110 115 112
324 146 217 207 169 185 119 224 185 170 185 192 133 169 222 187 193 194 187 182 178 178 169 169 171 158 159 162 159 169 169 174 164 158 157 154 148 144 143 139 141 134 119 116
235 281 277 356 275 84 173 232 180 184 189 177 191 186 192 179 186 190 184 181 168 165 171 175 163 158 164 167 174 172 168 170 164 161 161 163 155 145 139 142 133 137 138 144
209 222 132 350 346 82 283 297 253 187 181 181 189 191 159 176 184 180 184 166 169 170 172 166 165 163 164 177 176 162 166 168 171 169 168 161 160 155 150 136 144 157 151 154
353 256 308 7 38 323 350 303 355 283 178 174 161 175 163 171 174 176 171 173 175 172 164 166 170 172 170 179 169 167 163 171 173 171 167 164 163 163 149 156 150 163 166 178
315 310 336 315 3 341 8 7 340 343 308 162 169 169 175 155 160 167 170 168 171 162 166 170 176 181 178 165 172 169 167 172 169 169 166 170 172 171 171 174 165 164 172 183
273 330 332 22 356 354 350 350 352 357 359 295 165 176 159 165 160 162 166 165 165 170 173 178 175 176 170 169 171 174 164 168 172 174 175 172 179 177 181 193 183 177 187 181
290 312 297 299 326 356 350 348 350 357 356 358 357 201 164 166 165 164 164 164 168 176 173 175 175 174 171 172 174 172 165 170 174 171 175 177 171 159 32 205 186 180 168 166
208 278 275 285 308 335 341 342 347 358 5 336 339 331 292 157 163 164 164 165 170 175 179 172 175 177 178 176 174 177 176 170 169 169 175 169 176 180 186 11 148 209 189 189
211 260 292 271 313 331 341 343 348 347 12 344 341 24 2 207 135 163 165 174 172 171 170 172 176 182 181 179 179 181 174 166 169 175 178 176 180 185 183 186 195 208 181 217
185 185 259 288 314 325 348 352 345 351 8 360 342 31 26 25 12 169 169 169 168 168 170 171 180 187 180 181 179 178 168 174 174 176 179 179 177 178 182 182 192 171 134 151
286 197 221 277 304 311 333 346 336 338 348 21 351 13 19 23 331 36 349 163 159 173 176 177 186 185 180 182 182 180 185 176 172 173 172 177 179 179 181 186 190 192 188 200
311 207 213 223 280 304 311 315 322 323 321 26 359 6 20 10 356 342 24 330 168 170 176 178 195 181 182 184 181 186 183 168 172 170 178 182 184 188 188 190 193 197 204 195
324 263 212 195 225 288 282 232 310 333 343 338 16 14 18 29 349 337 348 334 224 110 134 166 174 171 182 185 185 181 181 172 178 182 180 188 190 189 190 192 195 198 206 196
329 328 213 187 216 232 270 255 199 343 339 327 360 35 15 12 339 336 285 291 163 124 172 154 135 154 183 187 179 180 176 174 185 189 188 181 181 189 190 195 195 195 203 184
327 329 338 342 223 222 225 260 190 234 266 248 18 63 29 349 335 334 305 297 211 167 151 156 106 105 131 153 171 182 173 179 182 188 182 185 185 190 197 197 194 197 189 182
328 311 312 327 340 257 221 222 235 247 255 144 358 72 70 356 325 302 297 301 325 35 122 126 129 126 119 125 147 154 168 171 177 182 186 189 186 191 200 194 195 198 191 187
317 306 295 297 296 296 329 8 270 245 23 59 10 317 94 38 313 299 307 253 274 47 79 50 32 5 96 121 117 116 140 166 170 169 183 191 194 196 204 203 200 192 187 189
292 288 286 275 269 270 252 246 217 116 88 304 212 281 149 132 205 221 267 287 144 109 101 93 86 40 337 110 135 147 158 161 167 177 193 189 195 190 196 205 195 164 150 150
340 287 267 266 264 265 255 222 195 188 157 237 261 213 137 147 302 314 226 259 237 117 114 124 96 83 61 108 106 103 100 103 102 97 65 60 164 158 158 151 139 136 130 128
336 335 355 340 300 280 266 228 186 186 156 181 222 202 150 170 163 199 247 255 239 147 111 74 91 110 115 120 114 111 99 96 97 100 96 93 88 81 74 89 114 135 121 125
349 345 343 336 340 335 301 4 173 169 173 137 199 167 161 185 138 232 208 261 278 140 149 148 104 96 107 109 112 105 105 96 79 73 86 85 82 84 90 96 100 102 108 115
354 5 3 359 353 359 360 34 35 31 5 137 128 210 122 109 154 141 277 266 152 99 66 72 64 68 101 121 112 106 103 98 92 100 88 95 101 105 105 108 109 112 116 124